Regional Weather Roundup
Issued by NWS Goodland, KS

Home | Current Version | Previous Version | Graphics & Text | Print | Product List | Glossary On
Versions: 1 2 3 4 5 6 7 8 9 10 11 12 13 14 15 16 17 18 19 20 21 22 23 24 25 26 27 28 29 30 31 32 33 34 35 36 37 38 39 40 41 42 43 44 45 46 47 48 49 50
000
ASUS43 KGLD 160759
RWRGLD

GOODLAND FORECAST AREA HOURLY WEATHER ROUNDUP
NATIONAL WEATHER SERVICE GOODLAND KS
200 AM MDT WED APR 16 2014

...OFFICIAL OBSERVATIONS...

CITY           SKY/WX    TMP DP  RH WIND       PRES   REMARKS
GOODLAND KS    CLOUDY    45  24  43 S17       29.62S
HILL CITY KS   PTCLDY    49  17  28 S16G23    29.66F
IMPERIAL NEB   CLOUDY    42  28  57 S7        29.58F
MCCOOK NEB     CLOUDY    48  24  39 S16G23    29.59F
AKRON CO       PTCLDY    46  26  45 NW15      29.68R
BURLINGTON CO  CLOUDY    41  27  57 W13       29.63F
LIMON CO       PTCLDY    33  24  69 NW7       29.70S
$$

...UNOFFICIAL OBSERVATIONS...

CITY           SKY/WX    TMP DP  RH WIND       PRES   REMARKS
COLBY KS       CLEAR     46  25  42 S14       29.63S
GOVE KS          N/A     51  32  48 S18G26      N/A
LENORA KS        N/A     47  32  56 S21         N/A
LEOTI KS         N/A     44  32  61 S12         N/A
NORTON KS      CLEAR     46  18  31 S17G24    29.64S
SHARON SPRINGS   N/A     40  24  52 S13G21      N/A
WAKEENEY KS      N/A     48  15  27 MISG        N/A
KIT CARSON CO    N/A     36  22  56 MISG        N/A
$$



USA.gov is the U.S. government's official web portal to all federal, state and local government web resources and services.